Year,Month,Day,Hour,Minute,Value (Times are PST for temperature in C)
2009,01,18,00,00,2.60
2009,01,18,00,01,2.50
2009,01,18,00,02,2.50
2009,01,18,00,03,2.40
2009,01,18,00,04,2.30
2009,01,18,00,05,2.30
2009,01,18,00,06,2.20
2009,01,18,00,07,2.20
2009,01,18,00,08,2.20
2009,01,18,00,09,2.10
2009,01,18,00,10,2.10
2009,01,18,00,11,2.00
2009,01,18,00,12,2.00
2009,01,18,00,13,2.00
2009,01,18,00,14,2.00
2009,01,18,00,15,1.90
2009,01,18,00,16,1.90
2009,01,18,00,17,1.90
2009,01,18,00,18,1.80
2009,01,18,00,19,1.80
2009,01,18,00,20,1.80
2009,01,18,00,21,1.80
2009,01,18,00,22,1.80
2009,01,18,00,23,1.80
2009,01,18,00,24,1.80
2009,01,18,00,25,1.90
2009,01,18,00,26,1.90
2009,01,18,00,27,2.00
2009,01,18,00,28,2.00
2009,01,18,00,29,2.10
2009,01,18,00,30,2.10
2009,01,18,00,31,2.10
2009,01,18,00,32,2.10
2009,01,18,00,33,2.10
2009,01,18,00,34,2.20
2009,01,18,00,35,2.20
2009,01,18,00,36,2.20
2009,01,18,00,37,2.20
2009,01,18,00,38,2.20
2009,01,18,00,39,2.10
2009,01,18,00,40,2.10
2009,01,18,00,41,2.10
2009,01,18,00,42,2.10
2009,01,18,00,43,2.00
2009,01,18,00,44,2.00
2009,01,18,00,45,2.00
2009,01,18,00,46,1.90
2009,01,18,00,47,1.90
2009,01,18,00,48,1.80
2009,01,18,00,49,1.80
2009,01,18,00,50,1.80
2009,01,18,00,51,1.70
2009,01,18,00,52,1.60
2009,01,18,00,53,1.60
2009,01,18,00,54,1.50
2009,01,18,00,55,1.50
2009,01,18,00,56,1.40
2009,01,18,00,57,1.40
2009,01,18,00,58,1.30
2009,01,18,00,59,1.30
2009,01,18,01,00,1.30
2009,01,18,01,01,1.20
2009,01,18,01,02,1.20
2009,01,18,01,03,1.10
2009,01,18,01,04,1.10
2009,01,18,01,05,1.00
2009,01,18,01,06,0.90
2009,01,18,01,07,0.90
2009,01,18,01,08,0.90
2009,01,18,01,09,0.80
2009,01,18,01,10,0.80
2009,01,18,01,11,0.80
2009,01,18,01,12,0.80
2009,01,18,01,13,0.80
2009,01,18,01,14,0.80
2009,01,18,01,15,0.70
2009,01,18,01,16,0.70
2009,01,18,01,17,0.60
2009,01,18,01,18,0.60
2009,01,18,01,19,0.60
2009,01,18,01,20,0.60
2009,01,18,01,21,0.50
2009,01,18,01,22,0.50
2009,01,18,01,23,0.60
2009,01,18,01,24,0.60
2009,01,18,01,25,0.60
2009,01,18,01,26,0.60
2009,01,18,01,27,0.70
2009,01,18,01,28,0.70
2009,01,18,01,29,0.70
2009,01,18,01,30,0.70
2009,01,18,01,31,0.80
2009,01,18,01,32,0.80
2009,01,18,01,33,0.80
2009,01,18,01,34,0.90
2009,01,18,01,35,1.00
2009,01,18,01,36,1.00
2009,01,18,01,37,1.10
2009,01,18,01,38,1.10
2009,01,18,01,39,1.20
2009,01,18,01,40,1.20
2009,01,18,01,41,1.30
2009,01,18,01,42,1.40
2009,01,18,01,43,1.40
2009,01,18,01,44,1.50
2009,01,18,01,45,1.50
2009,01,18,01,46,1.60
2009,01,18,01,47,1.60
2009,01,18,01,48,1.70
2009,01,18,01,49,1.70
2009,01,18,01,50,1.80
2009,01,18,01,51,1.80
2009,01,18,01,52,1.80
2009,01,18,01,53,1.80
2009,01,18,01,54,1.80
2009,01,18,01,55,1.90
2009,01,18,01,56,1.90
2009,01,18,01,57,1.90
2009,01,18,01,58,2.00
2009,01,18,01,59,2.00
2009,01,18,02,00,2.10
2009,01,18,02,01,2.10
2009,01,18,02,02,2.10
2009,01,18,02,03,2.10
2009,01,18,02,04,2.10
2009,01,18,02,05,2.10
2009,01,18,02,06,2.10
2009,01,18,02,07,2.10
2009,01,18,02,08,2.00
2009,01,18,02,09,2.00
2009,01,18,02,10,2.00
2009,01,18,02,11,2.00
2009,01,18,02,12,2.00
2009,01,18,02,13,2.00
2009,01,18,02,14,2.00
2009,01,18,02,15,2.00
2009,01,18,02,16,2.00
2009,01,18,02,17,2.00
2009,01,18,02,18,2.00
2009,01,18,02,19,2.00
2009,01,18,02,20,2.00
2009,01,18,02,21,2.00
2009,01,18,02,22,2.00
2009,01,18,02,23,2.00
2009,01,18,02,24,2.00
2009,01,18,02,25,2.10
2009,01,18,02,26,2.10
2009,01,18,02,27,2.10
2009,01,18,02,28,2.10
2009,01,18,02,29,2.20
2009,01,18,02,30,2.20
2009,01,18,02,31,2.20
2009,01,18,02,32,2.20
2009,01,18,02,33,2.20
2009,01,18,02,34,2.20
2009,01,18,02,35,2.20
2009,01,18,02,36,2.20
2009,01,18,02,37,2.20
2009,01,18,02,38,2.20
2009,01,18,02,39,2.20
2009,01,18,02,40,2.20
2009,01,18,02,41,2.20
2009,01,18,02,42,2.20
2009,01,18,02,43,2.20
2009,01,18,02,44,2.20
2009,01,18,02,45,2.20
2009,01,18,02,46,2.20
2009,01,18,02,47,2.20
2009,01,18,02,48,2.30
2009,01,18,02,49,2.30
2009,01,18,02,50,2.30
2009,01,18,02,51,2.40
2009,01,18,02,52,2.40
2009,01,18,02,53,2.50
2009,01,18,02,54,2.50
2009,01,18,02,55,2.50
2009,01,18,02,56,2.60
2009,01,18,02,57,2.60
2009,01,18,02,58,2.60
2009,01,18,02,59,2.70
2009,01,18,03,00,2.70
2009,01,18,03,01,2.70
2009,01,18,03,02,2.70
2009,01,18,03,03,2.70
2009,01,18,03,04,2.70
2009,01,18,03,05,2.70
2009,01,18,03,06,2.70
2009,01,18,03,07,2.70
2009,01,18,03,08,2.70
2009,01,18,03,09,2.70
2009,01,18,03,10,2.70
2009,01,18,03,11,2.70
2009,01,18,03,12,2.70
2009,01,18,03,13,2.70
2009,01,18,03,14,2.60
2009,01,18,03,15,2.60
2009,01,18,03,16,2.60
2009,01,18,03,17,2.60
2009,01,18,03,18,2.60
2009,01,18,03,19,2.60
2009,01,18,03,20,2.70
2009,01,18,03,21,2.70
2009,01,18,03,22,2.70
2009,01,18,03,23,2.70
2009,01,18,03,24,2.70
2009,01,18,03,25,2.70
2009,01,18,03,26,2.70
2009,01,18,03,27,2.70
2009,01,18,03,28,2.70
2009,01,18,03,29,2.70
2009,01,18,03,30,2.70
2009,01,18,03,31,2.70
2009,01,18,03,32,2.70
2009,01,18,03,33,2.70
2009,01,18,03,34,2.70
2009,01,18,03,35,2.70
2009,01,18,03,36,2.70
2009,01,18,03,37,2.70
2009,01,18,03,38,2.70
2009,01,18,03,39,2.70
2009,01,18,03,40,2.80
2009,01,18,03,41,2.80
2009,01,18,03,42,2.80
2009,01,18,03,43,2.80
2009,01,18,03,44,2.80
2009,01,18,03,45,2.80
2009,01,18,03,46,2.80
2009,01,18,03,47,2.80
2009,01,18,03,48,2.80
2009,01,18,03,49,2.80
2009,01,18,03,50,2.90
2009,01,18,03,51,2.90
2009,01,18,03,52,2.90
2009,01,18,03,53,2.90
2009,01,18,03,54,2.90
2009,01,18,03,55,2.90
2009,01,18,03,56,2.90
2009,01,18,03,57,3.00
2009,01,18,03,58,3.10
2009,01,18,03,59,3.10
2009,01,18,04,00,3.10
2009,01,18,04,01,2.90
2009,01,18,04,02,2.90
2009,01,18,04,03,2.90
2009,01,18,04,04,2.90
2009,01,18,04,05,2.90
2009,01,18,04,06,2.90
2009,01,18,04,07,2.90
2009,01,18,04,08,2.90
2009,01,18,04,09,2.90
2009,01,18,04,10,2.90
2009,01,18,04,11,2.90
2009,01,18,04,12,2.90
2009,01,18,04,13,2.90
2009,01,18,04,14,2.90
2009,01,18,04,15,2.90
2009,01,18,04,16,2.90
2009,01,18,04,17,2.90
2009,01,18,04,18,2.90
2009,01,18,04,19,2.90
2009,01,18,04,20,2.90
2009,01,18,04,21,2.90
2009,01,18,04,22,3.00
2009,01,18,04,23,3.10
2009,01,18,04,24,3.10
2009,01,18,04,25,3.10
2009,01,18,04,26,3.10
2009,01,18,04,27,3.10
2009,01,18,04,28,3.10
2009,01,18,04,29,3.10
2009,01,18,04,30,3.10
2009,01,18,04,31,3.10
2009,01,18,04,32,3.10
2009,01,18,04,33,3.10
2009,01,18,04,34,3.10
2009,01,18,04,35,3.10
2009,01,18,04,36,3.10
2009,01,18,04,37,3.10
2009,01,18,04,38,3.10
2009,01,18,04,39,3.10
2009,01,18,04,40,3.10
2009,01,18,04,41,3.10
2009,01,18,04,42,3.10
2009,01,18,04,43,3.10
2009,01,18,04,44,3.10
2009,01,18,04,45,3.10
2009,01,18,04,46,3.20
2009,01,18,04,47,3.20
2009,01,18,04,48,3.20
2009,01,18,04,49,3.20
2009,01,18,04,50,3.20
2009,01,18,04,51,3.20
2009,01,18,04,52,3.20
2009,01,18,04,53,3.20
2009,01,18,04,54,3.20
2009,01,18,04,55,3.20
2009,01,18,04,56,3.30
2009,01,18,04,57,3.30
2009,01,18,04,58,3.30
2009,01,18,04,59,3.30
2009,01,18,05,00,3.30
2009,01,18,05,01,3.30
2009,01,18,05,02,3.30
2009,01,18,05,03,3.30
2009,01,18,05,04,3.30
2009,01,18,05,05,3.30
2009,01,18,05,06,3.30
2009,01,18,05,07,3.30
2009,01,18,05,08,3.20
2009,01,18,05,09,3.20
2009,01,18,05,10,3.20
2009,01,18,05,11,3.20
2009,01,18,05,12,3.20
2009,01,18,05,13,3.20
2009,01,18,05,14,3.20
2009,01,18,05,15,3.20
2009,01,18,05,16,3.20
2009,01,18,05,17,3.20
2009,01,18,05,18,3.10
2009,01,18,05,19,3.10
2009,01,18,05,20,3.10
2009,01,18,05,21,3.10
2009,01,18,05,22,3.10
2009,01,18,05,23,3.10
2009,01,18,05,24,3.10
2009,01,18,05,25,3.10
2009,01,18,05,26,3.10
2009,01,18,05,27,3.10
2009,01,18,05,28,3.10
2009,01,18,05,29,3.10
2009,01,18,05,30,3.10
2009,01,18,05,31,3.10
2009,01,18,05,32,3.10
2009,01,18,05,33,3.10
2009,01,18,05,34,3.10
2009,01,18,05,35,3.10
2009,01,18,05,36,3.10
2009,01,18,05,37,3.10
2009,01,18,05,38,3.10
2009,01,18,05,39,3.20
2009,01,18,05,40,3.20
2009,01,18,05,41,3.20
2009,01,18,05,42,3.20
2009,01,18,05,43,3.10
2009,01,18,05,44,3.10
2009,01,18,05,45,3.10
2009,01,18,05,46,3.10
2009,01,18,05,47,3.10
2009,01,18,05,48,3.00
2009,01,18,05,49,2.90
2009,01,18,05,50,2.90
2009,01,18,05,51,2.90
2009,01,18,05,52,2.90
2009,01,18,05,53,2.90
2009,01,18,05,54,2.90
2009,01,18,05,55,2.90
2009,01,18,05,56,2.90
2009,01,18,05,57,2.90
2009,01,18,05,58,2.90
2009,01,18,05,59,2.90
2009,01,18,06,00,2.90
2009,01,18,06,01,2.80
2009,01,18,06,02,2.80
2009,01,18,06,03,2.80
2009,01,18,06,04,2.70
2009,01,18,06,05,2.70
2009,01,18,06,06,2.70
2009,01,18,06,07,2.70
2009,01,18,06,08,2.70
2009,01,18,06,09,2.70
2009,01,18,06,10,2.70
2009,01,18,06,11,2.70
2009,01,18,06,12,2.80
2009,01,18,06,13,2.80
2009,01,18,06,14,2.80
2009,01,18,06,15,2.90
2009,01,18,06,16,2.90
2009,01,18,06,17,2.90
2009,01,18,06,18,2.90
2009,01,18,06,19,2.90
2009,01,18,06,20,3.00
2009,01,18,06,21,3.10
2009,01,18,06,22,3.10
2009,01,18,06,23,3.10
2009,01,18,06,24,3.10
2009,01,18,06,25,3.10
2009,01,18,06,26,3.10
2009,01,18,06,27,3.00
2009,01,18,06,28,2.90
2009,01,18,06,29,2.90
2009,01,18,06,30,2.90
2009,01,18,06,31,2.90
2009,01,18,06,32,2.90
2009,01,18,06,33,2.80
2009,01,18,06,34,2.80
2009,01,18,06,35,2.70
2009,01,18,06,36,2.70
2009,01,18,06,37,2.70
2009,01,18,06,38,2.70
2009,01,18,06,39,2.70
2009,01,18,06,40,2.60
2009,01,18,06,41,2.60
2009,01,18,06,42,2.60
2009,01,18,06,43,2.60
2009,01,18,06,44,2.50
2009,01,18,06,45,2.50
2009,01,18,06,46,2.50
2009,01,18,06,47,2.50
2009,01,18,06,48,2.50
2009,01,18,06,49,2.50
2009,01,18,06,50,2.50
2009,01,18,06,51,2.50
2009,01,18,06,52,2.50
2009,01,18,06,53,2.50
2009,01,18,06,54,2.50
2009,01,18,06,55,2.50
2009,01,18,06,56,2.50
2009,01,18,06,57,2.50
2009,01,18,06,58,2.60
2009,01,18,06,59,2.60
2009,01,18,07,00,2.60
2009,01,18,07,01,2.60
2009,01,18,07,02,2.60
2009,01,18,07,03,2.70
2009,01,18,07,04,2.70
2009,01,18,07,05,2.70
2009,01,18,07,06,2.70
2009,01,18,07,07,2.70
2009,01,18,07,08,2.70
2009,01,18,07,09,2.80
2009,01,18,07,10,2.90
2009,01,18,07,11,2.90
2009,01,18,07,12,2.90
2009,01,18,07,13,3.00
2009,01,18,07,14,3.10
2009,01,18,07,15,3.10
2009,01,18,07,16,3.10
2009,01,18,07,17,3.10
2009,01,18,07,18,3.10
2009,01,18,07,19,3.10
2009,01,18,07,20,3.10
2009,01,18,07,21,3.10
2009,01,18,07,22,3.00
2009,01,18,07,23,2.90
2009,01,18,07,24,2.90
2009,01,18,07,25,2.80
2009,01,18,07,26,2.70
2009,01,18,07,27,2.70
2009,01,18,07,28,2.70
2009,01,18,07,29,2.70
2009,01,18,07,30,2.70
2009,01,18,07,31,2.70
2009,01,18,07,32,2.70
2009,01,18,07,33,2.70
2009,01,18,07,34,2.60
2009,01,18,07,35,2.60
2009,01,18,07,36,2.50
2009,01,18,07,37,2.50
2009,01,18,07,38,2.40
2009,01,18,07,39,2.40
2009,01,18,07,40,2.30
2009,01,18,07,41,2.30
2009,01,18,07,42,2.20
2009,01,18,07,43,2.20
2009,01,18,07,44,2.20
2009,01,18,07,45,2.10
2009,01,18,07,46,2.10
2009,01,18,07,47,2.10
2009,01,18,07,48,2.10
2009,01,18,07,49,2.10
2009,01,18,07,50,2.10
2009,01,18,07,51,2.10
2009,01,18,07,52,2.10
2009,01,18,07,53,2.20
2009,01,18,07,54,2.20
2009,01,18,07,55,2.20
2009,01,18,07,56,2.20
2009,01,18,07,57,2.20
2009,01,18,07,58,2.20
2009,01,18,07,59,2.20
2009,01,18,08,00,2.30
2009,01,18,08,01,2.30
2009,01,18,08,02,2.30
2009,01,18,08,03,2.40
2009,01,18,08,04,2.40
2009,01,18,08,05,2.40
2009,01,18,08,06,2.50
2009,01,18,08,07,2.50
2009,01,18,08,08,2.50
2009,01,18,08,09,2.50
2009,01,18,08,10,2.50
2009,01,18,08,11,2.50
2009,01,18,08,12,2.40
2009,01,18,08,13,2.50
2009,01,18,08,14,2.50
2009,01,18,08,15,2.50
2009,01,18,08,16,2.50
2009,01,18,08,17,2.50
2009,01,18,08,18,2.60
2009,01,18,08,19,2.60
2009,01,18,08,20,2.60
2009,01,18,08,21,2.70
2009,01,18,08,22,2.70
2009,01,18,08,23,2.70
2009,01,18,08,24,2.70
2009,01,18,08,25,2.70
2009,01,18,08,26,2.60
2009,01,18,08,27,2.60
2009,01,18,08,28,2.60
2009,01,18,08,29,2.50
2009,01,18,08,30,2.50
2009,01,18,08,31,2.50
2009,01,18,08,32,2.40
2009,01,18,08,33,2.40
2009,01,18,08,34,2.40
2009,01,18,08,35,2.30
2009,01,18,08,36,2.30
2009,01,18,08,37,2.30
2009,01,18,08,38,2.30
2009,01,18,08,39,2.20
2009,01,18,08,40,2.30
2009,01,18,08,41,2.30
2009,01,18,08,42,2.30
2009,01,18,08,43,2.30
2009,01,18,08,44,2.30
2009,01,18,08,45,2.30
2009,01,18,08,46,2.30
2009,01,18,08,47,2.30
2009,01,18,08,48,2.30
2009,01,18,08,49,2.40
2009,01,18,08,50,2.40
2009,01,18,08,51,2.40
2009,01,18,08,52,2.40
2009,01,18,08,53,2.40
2009,01,18,08,54,2.40
2009,01,18,08,55,2.40
2009,01,18,08,56,2.40
2009,01,18,08,57,2.40
2009,01,18,08,58,2.40
2009,01,18,08,59,2.40
2009,01,18,09,00,2.40
2009,01,18,09,01,2.40
2009,01,18,09,02,2.40
2009,01,18,09,03,2.30
2009,01,18,09,04,2.30
2009,01,18,09,05,2.30
2009,01,18,09,06,2.20
2009,01,18,09,07,2.20
2009,01,18,09,08,2.20
2009,01,18,09,09,2.20
2009,01,18,09,10,2.30
2009,01,18,09,11,2.40
2009,01,18,09,12,2.40
2009,01,18,09,13,2.50
2009,01,18,09,14,2.60
2009,01,18,09,15,2.70
2009,01,18,09,16,2.70
2009,01,18,09,17,2.80
2009,01,18,09,18,2.90
2009,01,18,09,19,3.00
2009,01,18,09,20,3.10
2009,01,18,09,21,3.20
2009,01,18,09,22,3.30
2009,01,18,09,23,3.40
2009,01,18,09,24,3.60
2009,01,18,09,25,3.80
2009,01,18,09,26,3.90
2009,01,18,09,27,4.10
2009,01,18,09,28,4.30
2009,01,18,09,29,4.50
2009,01,18,09,30,4.60
2009,01,18,09,31,4.80
2009,01,18,09,32,5.00
2009,01,18,09,33,5.20
2009,01,18,09,34,5.30
2009,01,18,09,35,5.50
2009,01,18,09,36,5.60
2009,01,18,09,37,5.80
2009,01,18,09,38,5.90
2009,01,18,09,39,6.10
2009,01,18,09,40,6.20
2009,01,18,09,41,6.40
2009,01,18,09,42,6.40
2009,01,18,09,43,6.60
2009,01,18,09,44,6.70
2009,01,18,09,45,6.80
2009,01,18,09,46,6.90
2009,01,18,09,47,7.00
2009,01,18,09,48,7.10
2009,01,18,09,49,7.20
2009,01,18,09,50,7.30
2009,01,18,09,51,7.30
2009,01,18,09,52,7.40
2009,01,18,09,53,7.40
2009,01,18,09,54,7.50
2009,01,18,09,55,7.50
2009,01,18,09,56,7.60
2009,01,18,09,57,7.70
2009,01,18,09,58,7.70
2009,01,18,09,59,7.70
2009,01,18,10,00,7.70
2009,01,18,10,01,7.70
2009,01,18,10,02,7.70
2009,01,18,10,03,7.70
2009,01,18,10,04,7.80
2009,01,18,10,05,7.80
2009,01,18,10,06,7.80
2009,01,18,10,07,7.80
2009,01,18,10,08,7.90
2009,01,18,10,09,7.90
2009,01,18,10,10,8.00
2009,01,18,10,11,8.00
2009,01,18,10,12,8.10
2009,01,18,10,13,8.20
2009,01,18,10,14,8.30
2009,01,18,10,15,8.30
2009,01,18,10,16,8.40
2009,01,18,10,17,8.50
2009,01,18,10,18,8.60
2009,01,18,10,19,8.60
2009,01,18,10,20,8.70
2009,01,18,10,21,8.70
2009,01,18,10,22,8.70
2009,01,18,10,23,8.80
2009,01,18,10,24,8.90
2009,01,18,10,25,8.90
2009,01,18,10,26,9.00
2009,01,18,10,27,9.00
2009,01,18,10,28,9.00
2009,01,18,10,29,9.00
2009,01,18,10,30,9.10
2009,01,18,10,31,9.10
2009,01,18,10,32,9.20
2009,01,18,10,33,9.20
2009,01,18,10,34,9.30
2009,01,18,10,35,9.30
2009,01,18,10,36,9.40
2009,01,18,10,37,9.40
2009,01,18,10,38,9.50
2009,01,18,10,39,9.50
2009,01,18,10,40,9.60
2009,01,18,10,41,9.70
2009,01,18,10,42,9.70
2009,01,18,10,43,9.70
2009,01,18,10,44,9.70
2009,01,18,10,45,9.70
2009,01,18,10,46,9.70
2009,01,18,10,47,9.70
2009,01,18,10,48,9.70
2009,01,18,10,49,9.70
2009,01,18,10,50,9.70
2009,01,18,10,51,9.70
2009,01,18,10,52,9.70
2009,01,18,10,53,9.70
2009,01,18,10,54,9.60
2009,01,18,10,55,9.50
2009,01,18,10,56,9.50
2009,01,18,10,57,9.40
2009,01,18,10,58,9.30
2009,01,18,10,59,9.20
2009,01,18,11,00,9.20
2009,01,18,11,01,9.20
2009,01,18,11,02,9.20
2009,01,18,11,03,9.20
2009,01,18,11,04,9.20
2009,01,18,11,05,9.30
2009,01,18,11,06,9.40
2009,01,18,11,07,9.50
2009,01,18,11,08,9.60
2009,01,18,11,09,9.70
2009,01,18,11,10,9.80
2009,01,18,11,11,9.90
2009,01,18,11,12,10.00
2009,01,18,11,13,10.20
2009,01,18,11,14,10.20
2009,01,18,11,15,10.40
2009,01,18,11,16,10.40
2009,01,18,11,17,10.60
2009,01,18,11,18,10.60
2009,01,18,11,19,10.60
2009,01,18,11,20,10.50
2009,01,18,11,21,10.40
2009,01,18,11,22,10.40
2009,01,18,11,23,10.40
2009,01,18,11,24,10.40
2009,01,18,11,25,10.40
2009,01,18,11,26,10.40
2009,01,18,11,27,10.40
2009,01,18,11,28,10.40
2009,01,18,11,29,10.40
2009,01,18,11,30,10.40
2009,01,18,11,31,10.50
2009,01,18,11,32,10.60
2009,01,18,11,33,10.60
2009,01,18,11,34,10.60
2009,01,18,11,35,10.70
2009,01,18,11,36,10.80
2009,01,18,11,37,10.90
2009,01,18,11,38,10.90
2009,01,18,11,39,11.00
2009,01,18,11,40,11.10
2009,01,18,11,41,11.10
2009,01,18,11,42,11.10
2009,01,18,11,43,11.10
2009,01,18,11,44,11.10
2009,01,18,11,45,11.10
2009,01,18,11,46,11.00
2009,01,18,11,47,10.90
2009,01,18,11,48,10.90
2009,01,18,11,49,11.00
2009,01,18,11,50,11.10
2009,01,18,11,51,11.10
2009,01,18,11,52,11.20
2009,01,18,11,53,11.30
2009,01,18,11,54,11.40
2009,01,18,11,55,11.40
2009,01,18,11,56,11.50
2009,01,18,11,57,11.60
2009,01,18,11,58,11.60
2009,01,18,11,59,11.60
2009,01,18,12,00,11.60
2009,01,18,12,01,11.60
2009,01,18,12,02,11.60
2009,01,18,12,03,11.60
2009,01,18,12,04,11.60
2009,01,18,12,05,11.60
2009,01,18,12,06,11.60
2009,01,18,12,07,11.70
2009,01,18,12,08,11.70
2009,01,18,12,09,11.70
2009,01,18,12,10,11.70
2009,01,18,12,11,11.70
2009,01,18,12,12,11.70
2009,01,18,12,13,11.70
2009,01,18,12,14,11.70
2009,01,18,12,15,11.70
2009,01,18,12,16,11.80
2009,01,18,12,17,11.80
2009,01,18,12,18,11.80
2009,01,18,12,19,11.90
2009,01,18,12,20,11.90
2009,01,18,12,21,11.90
2009,01,18,12,22,12.00
2009,01,18,12,23,12.00
2009,01,18,12,24,12.10
2009,01,18,12,25,12.10
2009,01,18,12,26,12.10
2009,01,18,12,27,12.20
2009,01,18,12,28,12.20
2009,01,18,12,29,12.30
2009,01,18,12,30,12.30
2009,01,18,12,31,12.30
2009,01,18,12,32,12.30
2009,01,18,12,33,12.30
2009,01,18,12,34,12.30
2009,01,18,12,35,12.30
2009,01,18,12,36,12.30
2009,01,18,12,37,12.30
2009,01,18,12,38,12.30
2009,01,18,12,39,12.40
2009,01,18,12,40,12.40
2009,01,18,12,41,12.50
2009,01,18,12,42,12.60
2009,01,18,12,43,12.60
2009,01,18,12,44,12.60
2009,01,18,12,45,12.60
2009,01,18,12,46,12.70
2009,01,18,12,47,12.70
2009,01,18,12,48,12.80
2009,01,18,12,49,12.80
2009,01,18,12,50,12.80
2009,01,18,12,51,12.80
2009,01,18,12,52,12.90
2009,01,18,12,53,12.90
2009,01,18,12,54,12.90
2009,01,18,12,55,13.00
2009,01,18,12,56,13.00
2009,01,18,12,57,13.10
2009,01,18,12,58,13.10
2009,01,18,12,59,13.10
2009,01,18,13,00,13.10
2009,01,18,13,01,13.10
2009,01,18,13,02,13.10
2009,01,18,13,03,13.10
2009,01,18,13,04,13.10
2009,01,18,13,05,13.10
2009,01,18,13,06,13.10
2009,01,18,13,07,13.10
2009,01,18,13,08,13.00
2009,01,18,13,09,13.00
2009,01,18,13,10,13.00
2009,01,18,13,11,13.10
2009,01,18,13,12,13.10
2009,01,18,13,13,13.10
2009,01,18,13,14,13.10
2009,01,18,13,15,13.20
2009,01,18,13,16,13.20
2009,01,18,13,17,13.20
2009,01,18,13,18,13.20
2009,01,18,13,19,13.20
2009,01,18,13,20,13.20
2009,01,18,13,21,13.20
2009,01,18,13,22,13.20
2009,01,18,13,23,13.20
2009,01,18,13,24,13.10
2009,01,18,13,25,13.10
2009,01,18,13,26,13.10
2009,01,18,13,27,13.10
2009,01,18,13,28,13.10
2009,01,18,13,29,13.20
2009,01,18,13,30,13.20
2009,01,18,13,31,13.20
2009,01,18,13,32,13.20
2009,01,18,13,33,13.20
2009,01,18,13,34,13.10
2009,01,18,13,35,13.10
2009,01,18,13,36,13.10
2009,01,18,13,37,13.10
2009,01,18,13,38,13.10
2009,01,18,13,39,13.10
2009,01,18,13,40,13.10
2009,01,18,13,41,13.00
2009,01,18,13,42,13.00
2009,01,18,13,43,13.00
2009,01,18,13,44,13.00
2009,01,18,13,45,13.00
2009,01,18,13,46,13.00
2009,01,18,13,47,13.00
2009,01,18,13,48,13.00
2009,01,18,13,49,13.10
2009,01,18,13,50,13.10
2009,01,18,13,51,13.10
2009,01,18,13,52,13.20
2009,01,18,13,53,13.20
2009,01,18,13,54,13.20
2009,01,18,13,55,13.20
2009,01,18,13,56,13.20
2009,01,18,13,57,13.20
2009,01,18,13,58,13.30
2009,01,18,13,59,13.30
2009,01,18,14,00,13.40
2009,01,18,14,01,13.40
2009,01,18,14,02,13.50
2009,01,18,14,03,13.50
2009,01,18,14,04,13.40
2009,01,18,14,05,13.40
2009,01,18,14,06,13.40
2009,01,18,14,07,13.40
2009,01,18,14,08,13.30
2009,01,18,14,09,13.30
2009,01,18,14,10,13.30
2009,01,18,14,11,13.30
2009,01,18,14,12,13.30
2009,01,18,14,13,13.20
2009,01,18,14,14,13.20
2009,01,18,14,15,13.20
2009,01,18,14,16,13.20
2009,01,18,14,17,13.10
2009,01,18,14,18,13.10
2009,01,18,14,19,13.00
2009,01,18,14,20,13.00
2009,01,18,14,21,13.00
2009,01,18,14,22,13.00
2009,01,18,14,23,13.00
2009,01,18,14,24,13.00
2009,01,18,14,25,13.10
2009,01,18,14,26,13.10
2009,01,18,14,27,13.10
2009,01,18,14,28,13.10
2009,01,18,14,29,13.10
2009,01,18,14,30,13.10
2009,01,18,14,31,13.20
2009,01,18,14,32,13.20
2009,01,18,14,33,13.20
2009,01,18,14,34,13.20
2009,01,18,14,35,13.10
2009,01,18,14,36,13.10
2009,01,18,14,37,13.10
2009,01,18,14,38,13.10
2009,01,18,14,39,13.10
2009,01,18,14,40,13.20
2009,01,18,14,41,13.20
2009,01,18,14,42,13.20
2009,01,18,14,43,13.20
2009,01,18,14,44,13.20
2009,01,18,14,45,13.30
2009,01,18,14,46,13.30
2009,01,18,14,47,13.30
2009,01,18,14,48,13.30
2009,01,18,14,49,13.30
2009,01,18,14,50,13.30
2009,01,18,14,51,13.30
2009,01,18,14,52,13.40
2009,01,18,14,53,13.40
2009,01,18,14,54,13.40
2009,01,18,14,55,13.40
2009,01,18,14,56,13.40
2009,01,18,14,57,13.40
2009,01,18,14,58,13.40
2009,01,18,14,59,13.40
2009,01,18,15,00,13.40
2009,01,18,15,01,13.40
2009,01,18,15,02,13.30
2009,01,18,15,03,13.30
2009,01,18,15,04,13.30
2009,01,18,15,05,13.30
2009,01,18,15,06,13.30
2009,01,18,15,07,13.30
2009,01,18,15,08,13.30
2009,01,18,15,09,13.30
2009,01,18,15,10,13.30
2009,01,18,15,11,13.30
2009,01,18,15,12,13.20
2009,01,18,15,13,13.20
2009,01,18,15,14,13.10
2009,01,18,15,15,13.10
2009,01,18,15,16,13.10
2009,01,18,15,17,13.10
2009,01,18,15,18,13.00
2009,01,18,15,19,13.00
2009,01,18,15,20,13.00
2009,01,18,15,21,12.90
2009,01,18,15,22,12.90
2009,01,18,15,23,12.80
2009,01,18,15,24,12.80
2009,01,18,15,25,12.80
2009,01,18,15,26,12.80
2009,01,18,15,27,12.80
2009,01,18,15,28,12.80
2009,01,18,15,29,12.80
2009,01,18,15,30,12.80
2009,01,18,15,31,12.80
2009,01,18,15,32,12.80
2009,01,18,15,33,12.80
2009,01,18,15,34,12.80
2009,01,18,15,35,12.80
2009,01,18,15,36,12.80
2009,01,18,15,37,12.80
2009,01,18,15,38,12.70
2009,01,18,15,39,12.70
2009,01,18,15,40,12.70
2009,01,18,15,41,12.70
2009,01,18,15,42,12.70
2009,01,18,15,43,12.70
2009,01,18,15,44,12.70
2009,01,18,15,45,12.70
2009,01,18,15,46,12.60
2009,01,18,15,47,12.60
2009,01,18,15,48,12.50
2009,01,18,15,49,12.50
2009,01,18,15,50,12.40
2009,01,18,15,51,12.30
2009,01,18,15,52,12.30
2009,01,18,15,53,12.20
2009,01,18,15,54,12.10
2009,01,18,15,55,12.10
2009,01,18,15,56,12.00
2009,01,18,15,57,11.90
2009,01,18,15,58,11.90
2009,01,18,15,59,11.80
2009,01,18,16,00,11.80
2009,01,18,16,01,11.70
2009,01,18,16,02,11.70
2009,01,18,16,03,11.60
2009,01,18,16,04,11.60
2009,01,18,16,05,11.40
2009,01,18,16,06,11.40
2009,01,18,16,07,11.30
2009,01,18,16,08,11.20
2009,01,18,16,09,11.20
2009,01,18,16,10,11.10
2009,01,18,16,11,11.10
2009,01,18,16,12,11.10
2009,01,18,16,13,10.90
2009,01,18,16,14,10.90
2009,01,18,16,15,10.80
2009,01,18,16,16,10.80
2009,01,18,16,17,10.60
2009,01,18,16,18,10.50
2009,01,18,16,19,10.40
2009,01,18,16,20,10.30
2009,01,18,16,21,10.20
2009,01,18,16,22,10.10
2009,01,18,16,23,10.00
2009,01,18,16,24,9.90
2009,01,18,16,25,9.90
2009,01,18,16,26,9.80
2009,01,18,16,27,9.70
2009,01,18,16,28,9.70
2009,01,18,16,29,9.60
2009,01,18,16,30,9.50
2009,01,18,16,31,9.40
2009,01,18,16,32,9.40
2009,01,18,16,33,9.40
2009,01,18,16,34,9.30
2009,01,18,16,35,9.30
2009,01,18,16,36,9.30
2009,01,18,16,37,9.20
2009,01,18,16,38,9.20
2009,01,18,16,39,9.10
2009,01,18,16,40,9.00
2009,01,18,16,41,9.00
2009,01,18,16,42,8.90
2009,01,18,16,43,8.80
2009,01,18,16,44,8.70
2009,01,18,16,45,8.70
2009,01,18,16,46,8.60
2009,01,18,16,47,8.50
2009,01,18,16,48,8.40
2009,01,18,16,49,8.30
2009,01,18,16,50,8.20
2009,01,18,16,51,8.10
2009,01,18,16,52,8.00
2009,01,18,16,53,7.90
2009,01,18,16,54,7.80
2009,01,18,16,55,7.70
2009,01,18,16,56,7.50
2009,01,18,16,57,7.40
2009,01,18,16,58,7.30
2009,01,18,16,59,7.30
2009,01,18,17,00,7.20
2009,01,18,17,01,7.20
2009,01,18,17,02,7.10
2009,01,18,17,03,7.10
2009,01,18,17,04,7.10
2009,01,18,17,05,7.00
2009,01,18,17,06,7.00
2009,01,18,17,07,6.90
2009,01,18,17,08,6.90
2009,01,18,17,09,6.90
2009,01,18,17,10,6.80
2009,01,18,17,11,6.80
2009,01,18,17,12,6.80
2009,01,18,17,13,6.80
2009,01,18,17,14,6.70
2009,01,18,17,15,6.70
2009,01,18,17,16,6.70
2009,01,18,17,17,6.60
2009,01,18,17,18,6.60
2009,01,18,17,19,6.50
2009,01,18,17,20,6.40
2009,01,18,17,21,6.40
2009,01,18,17,22,6.30
2009,01,18,17,23,6.30
2009,01,18,17,24,6.30
2009,01,18,17,25,6.20
2009,01,18,17,26,6.20
2009,01,18,17,27,6.20
2009,01,18,17,28,6.20
2009,01,18,17,29,6.20
2009,01,18,17,30,6.20
2009,01,18,17,31,6.20
2009,01,18,17,32,6.10
2009,01,18,17,33,6.10
2009,01,18,17,34,6.10
2009,01,18,17,35,6.00
2009,01,18,17,36,6.00
2009,01,18,17,37,5.90
2009,01,18,17,38,5.90
2009,01,18,17,39,5.90
2009,01,18,17,40,5.80
2009,01,18,17,41,5.80
2009,01,18,17,42,5.80
2009,01,18,17,43,5.70
2009,01,18,17,44,5.70
2009,01,18,17,45,5.70
2009,01,18,17,46,5.70
2009,01,18,17,47,5.70
2009,01,18,17,48,5.70
2009,01,18,17,49,5.70
2009,01,18,17,50,5.70
2009,01,18,17,51,5.70
2009,01,18,17,52,5.70